Вернуться в каталог

COSMOS 339

АктивенВоенныеLEO
NORAD 4386·PAYLOAD·🇷🇺 Russia

Запущен Apr 25, 1970 с Plesetsk Cosmodrome

Loading…

Ближайшие Пролёты (ближайшие 24 часа)

TLE

СвежийSource: Space-Track

Эпоха: Sep 14, 2026, 08:21 UTC

1 04386U 70036D   26257.34797424 -.00000018  00000-0 -16005-4 0  9996
2 04386  74.0317  21.4385 0015344  16.2989  13.0439 12.51877350576568

Отслеживайте COSMOS 339 в реальном времени с AllMySat

Download on the App Store